User: anonymous   Login
Location: Arcusa
(42.3167°N, 0.0833°W)
Time: 11:18:08
(UTC+00:00)
Language:

Cosmos 2360 Rocket - Orbit

View from above orbital plane
View from above orbital plane
View from above satellite
View from above satellite

Ground track
Ground track

The orbit data is extracted from the following two-line orbital elements,

1 25407U 98045B   20089.14899374 -.00000280  00000-0 -11835-3 0  9991
2 25407  71.0114  66.3701 0005362 102.5070 257.6653 14.15798208119985
Epoch (UTC): 29 March 2020 03:34:33
Eccentricity: 0.0005362
inclination: 71.0114°
perigee height: 836 km
apogee height: 843 km
right ascension of ascending node: 66.3701°
argument of perigee: 102.5070°
revolutions per day: 14.15798208
mean anomaly at epoch: 257.6653°
orbit number at epoch: 11998

The dashed part of the orbit path shows where the satellite is in the earth's shadow,  

DLR